Christchurch, New Zealand

10:11 AM NZDT on March 26, 2017 (GMT +1300)
Christchurch International

Weather History for NZCH - April, 2013

Change the Weather History Date:

Tuesday, April 30, 2013

  Actual Average Record
Temperature  
Mean Temperature 50 °F -  
Max Temperature 55 °F 58 °F 69 °F (2011)
Min Temperature 42 °F 41 °F 35 °F (2002)
Degree Days  
Heating Degree Days 16    
Moisture  
Dew Point 47 °F    
Average Humidity 91    
Maximum Humidity 100    
Minimum Humidity 71    
Precipitation  
Precipitation 0.00 in - - ()
Sea Level Pressure  
Sea Level Pressure 30.08 in    
Wind  
Wind Speed 5 mph ()    
Max Wind Speed 17 mph    
Max Gust Speed -    
Visibility 3.9 miles    
Events Fog , Rain    
Averages and records for this station are not official NWS values.
T = Trace of Precipitation, MM = Missing Value Source: Averaged Metar Reports

Daily Weather History Graph

Daily Weather History Graph

Search for Another Location

Airport or City:

Trip Planner

Search our weather history database for the weather conditions in past years. The results will help you decide how hot, cold, wet, or windy it might be!

Date:

Astronomy

Apr. 30, 2013 Rise Set
Actual Time 7:19 AM NZST 5:33 PM NZST
Civil Twilight 6:49 AM NZST 6:03 PM NZST
Nautical Twilight 6:16 AM NZST 6:37 PM NZST
Astronomical Twilight 5:42 AM NZST 7:10 PM NZST
Moon 9:36 PM NZST (4/30) 11:42 AM NZST (4/30)
Length of Visible Light 11h 13m
Length of Day
10h 13m
Waning Gibbous, 77% of the Moon is Illuminated
Apr 30
Waning Gibbous
May 2
Last Quarter
May 10
New
May 18
First Quarter
May 25
Full

Hourly Weather History & Observations

Time (NZST) Temp. Windchill Dew Point Humidity Pressure Visibility Wind Dir Wind Speed Gust Speed Precip Events Conditions
12:00 AM 51.8 °F - 50.0 °F 94% 29.92 in 0.4 mi SSW 5.8 mph - N/A Fog Fog
1:00 AM 51.8 °F - 50.0 °F 94% 29.95 in 0.3 mi SW 3.5 mph - N/A Fog Fog
2:00 AM 51.8 °F - 50.0 °F 94% 29.95 in 0.2 mi SW 3.5 mph - N/A Fog Fog
3:00 AM 50.0 °F - 50.0 °F 100% 29.95 in 0.4 mi WSW 3.5 mph - N/A Fog Fog
4:00 AM 50.0 °F - 50.0 °F 100% 29.92 in 0.3 mi SW 5.8 mph - N/A Fog Fog
5:00 AM 48.2 °F - 48.2 °F 100% 29.95 in 0.3 mi WSW 4.6 mph - N/A Fog Fog
6:00 AM 48.2 °F - 48.2 °F 100% 29.98 in 0.4 mi SW 8.1 mph - N/A Fog Fog
7:00 AM 50.0 °F - 48.2 °F 94% 30.01 in 0.5 mi WSW 6.9 mph - N/A Fog Fog
7:20 AM 50.0 °F - 48.2 °F 94% 30.01 in 1.2 mi West 3.5 mph - N/A   Overcast
8:00 AM 50.0 °F - 48.2 °F 94% 30.04 in 2.5 mi NW 2.3 mph - N/A   Overcast
9:00 AM 50.0 °F - 50.0 °F 100% 30.06 in 5.6 mi NW 4.6 mph - N/A   Overcast
10:00 AM 53.6 °F - 51.8 °F 94% 30.06 in 5.6 mi WNW 4.6 mph - N/A   Scattered Clouds
11:00 AM 55.4 °F - 53.6 °F 94% 30.06 in 6.2 mi North 4.6 mph - N/A   Mostly Cloudy
12:00 PM 48.2 °F - 46.4 °F 93% 30.09 in 6.2 mi SSW 16.1 mph - N/A Rain Rain
1:00 PM 50.0 °F - 48.2 °F 94% 30.09 in 6.2 mi South 9.2 mph - N/A   Overcast
2:00 PM 50.0 °F - 46.4 °F 87% 30.12 in 6.2 mi South 17.3 mph - N/A   Overcast
3:00 PM 50.0 °F - 42.8 °F 76% 30.12 in 6.2 mi South 15.0 mph - N/A   Overcast
4:00 PM 50.0 °F - 42.8 °F 76% 30.15 in 6.2 mi South 8.1 mph - N/A   Overcast
5:00 PM 51.8 °F - 42.8 °F 71% 30.18 in 6.2 mi SW 4.6 mph - N/A   Overcast
6:00 PM 50.0 °F - 42.8 °F 76% 30.18 in 6.2 mi West 2.3 mph - N/A   Overcast
7:00 PM 48.2 °F - 44.6 °F 87% 30.21 in 6.2 mi West 4.6 mph - N/A   Overcast
8:00 PM 48.2 °F - 44.6 °F 87% 30.21 in 6.2 mi WNW 4.6 mph - N/A   Mostly Cloudy
9:00 PM 48.2 °F - 44.6 °F 87% 30.24 in 6.2 mi WNW 4.6 mph - N/A   Mostly Cloudy
10:00 PM 44.6 °F 42.2 °F 42.8 °F 93% 30.24 in 6.2 mi WNW 4.6 mph - N/A   Scattered Clouds
11:00 PM 42.8 °F - 41.0 °F 93% 30.24 in 6.2 mi NE 1.2 mph - N/A Fog Shallow Fog